Year,Month,Day,Hour,Minute,Value (Times are PST for temperature in C)
2023,04,28,00,00,9.50
2023,04,28,00,01,9.50
2023,04,28,00,02,9.60
2023,04,28,00,03,9.60
2023,04,28,00,04,9.60
2023,04,28,00,05,9.60
2023,04,28,00,06,9.60
2023,04,28,00,07,9.70
2023,04,28,00,08,9.70
2023,04,28,00,09,9.70
2023,04,28,00,10,9.70
2023,04,28,00,11,9.70
2023,04,28,00,12,9.60
2023,04,28,00,13,9.60
2023,04,28,00,14,9.60
2023,04,28,00,15,9.60
2023,04,28,00,16,9.50
2023,04,28,00,17,9.50
2023,04,28,00,18,9.40
2023,04,28,00,19,9.40
2023,04,28,00,20,9.40
2023,04,28,00,21,9.40
2023,04,28,00,22,9.30
2023,04,28,00,23,9.40
2023,04,28,00,24,9.40
2023,04,28,00,25,9.40
2023,04,28,00,26,9.30
2023,04,28,00,27,9.30
2023,04,28,00,28,9.30
2023,04,28,00,29,9.30
2023,04,28,00,30,9.30
2023,04,28,00,31,9.30
2023,04,28,00,32,9.30
2023,04,28,00,33,9.20
2023,04,28,00,34,9.20
2023,04,28,00,35,9.20
2023,04,28,00,36,9.10
2023,04,28,00,37,9.10
2023,04,28,00,38,9.20
2023,04,28,00,39,9.20
2023,04,28,00,40,9.20
2023,04,28,00,41,9.30
2023,04,28,00,42,9.30
2023,04,28,00,43,9.30
2023,04,28,00,44,9.30
2023,04,28,00,45,9.30
2023,04,28,00,46,9.30
2023,04,28,00,47,9.30
2023,04,28,00,48,9.30
2023,04,28,00,49,9.30
2023,04,28,00,50,9.30
2023,04,28,00,51,9.30
2023,04,28,00,52,9.30
2023,04,28,00,53,9.40
2023,04,28,00,54,9.40
2023,04,28,00,55,9.40
2023,04,28,00,56,9.40
2023,04,28,00,57,9.40
2023,04,28,00,58,9.40
2023,04,28,00,59,9.40
2023,04,28,01,00,9.40
2023,04,28,01,01,9.40
2023,04,28,01,02,9.40
2023,04,28,01,03,9.40
2023,04,28,01,04,9.40
2023,04,28,01,05,9.40
2023,04,28,01,06,9.40
2023,04,28,01,07,9.40
2023,04,28,01,08,9.40
2023,04,28,01,09,9.40
2023,04,28,01,10,9.40
2023,04,28,01,11,9.30
2023,04,28,01,12,9.30
2023,04,28,01,13,9.30
2023,04,28,01,14,9.30
2023,04,28,01,15,9.30
2023,04,28,01,16,9.30
2023,04,28,01,17,9.30
2023,04,28,01,18,9.30
2023,04,28,01,19,9.40
2023,04,28,01,20,9.40
2023,04,28,01,21,9.30
2023,04,28,01,22,9.30
2023,04,28,01,23,9.30
2023,04,28,01,24,9.30
2023,04,28,01,25,9.30
2023,04,28,01,26,9.30
2023,04,28,01,27,9.30
2023,04,28,01,28,9.30
2023,04,28,01,29,9.30
2023,04,28,01,30,9.30
2023,04,28,01,31,9.30
2023,04,28,01,32,9.30
2023,04,28,01,33,9.30
2023,04,28,01,34,9.30
2023,04,28,01,35,9.30
2023,04,28,01,36,9.30
2023,04,28,01,37,9.30
2023,04,28,01,38,9.30
2023,04,28,01,39,9.30
2023,04,28,01,40,9.30
2023,04,28,01,41,9.30
2023,04,28,01,42,9.30
2023,04,28,01,43,9.30
2023,04,28,01,44,9.40
2023,04,28,01,45,9.40
2023,04,28,01,46,9.30
2023,04,28,01,47,9.30
2023,04,28,01,48,9.30
2023,04,28,01,49,9.30
2023,04,28,01,50,9.30
2023,04,28,01,51,9.30
2023,04,28,01,52,9.30
2023,04,28,01,53,9.30
2023,04,28,01,54,9.20
2023,04,28,01,55,9.20
2023,04,28,01,56,9.20
2023,04,28,01,57,9.20
2023,04,28,01,58,9.20
2023,04,28,01,59,9.20
2023,04,28,02,00,9.20
2023,04,28,02,01,9.20
2023,04,28,02,02,9.20
2023,04,28,02,03,9.10
2023,04,28,02,04,9.10
2023,04,28,02,05,9.10
2023,04,28,02,06,9.10
2023,04,28,02,07,9.00
2023,04,28,02,08,9.00
2023,04,28,02,09,9.00
2023,04,28,02,10,9.00
2023,04,28,02,11,9.00
2023,04,28,02,12,9.00
2023,04,28,02,13,9.00
2023,04,28,02,14,9.00
2023,04,28,02,15,9.00
2023,04,28,02,16,9.00
2023,04,28,02,17,9.00
2023,04,28,02,18,9.00
2023,04,28,02,19,9.00
2023,04,28,02,20,9.00
2023,04,28,02,21,9.00
2023,04,28,02,22,9.00
2023,04,28,02,23,9.00
2023,04,28,02,24,9.00
2023,04,28,02,25,9.00
2023,04,28,02,26,9.00
2023,04,28,02,27,9.10
2023,04,28,02,28,9.10
2023,04,28,02,29,9.10
2023,04,28,02,30,9.10
2023,04,28,02,31,9.10
2023,04,28,02,32,9.10
2023,04,28,02,33,9.10
2023,04,28,02,34,9.10
2023,04,28,02,35,9.10
2023,04,28,02,36,9.10
2023,04,28,02,37,9.00
2023,04,28,02,38,9.00
2023,04,28,02,39,9.00
2023,04,28,02,40,9.00
2023,04,28,02,41,9.00
2023,04,28,02,42,9.00
2023,04,28,02,43,9.00
2023,04,28,02,44,8.90
2023,04,28,02,45,8.90
2023,04,28,02,46,8.90
2023,04,28,02,47,8.90
2023,04,28,02,48,8.90
2023,04,28,02,49,8.90
2023,04,28,02,50,8.90
2023,04,28,02,51,8.90
2023,04,28,02,52,8.90
2023,04,28,02,53,8.90
2023,04,28,02,54,8.90
2023,04,28,02,55,8.90
2023,04,28,02,56,8.80
2023,04,28,02,57,8.80
2023,04,28,02,58,8.80
2023,04,28,02,59,8.80
2023,04,28,03,00,8.80
2023,04,28,03,01,8.80
2023,04,28,03,02,8.80
2023,04,28,03,03,8.80
2023,04,28,03,04,8.70
2023,04,28,03,05,8.70
2023,04,28,03,06,8.70
2023,04,28,03,07,8.70
2023,04,28,03,08,8.70
2023,04,28,03,09,8.60
2023,04,28,03,10,8.60
2023,04,28,03,11,8.60
2023,04,28,03,12,8.60
2023,04,28,03,13,8.60
2023,04,28,03,14,8.60
2023,04,28,03,15,8.60
2023,04,28,03,16,8.60
2023,04,28,03,17,8.60
2023,04,28,03,18,8.60
2023,04,28,03,19,8.60
2023,04,28,03,20,8.50
2023,04,28,03,21,8.50
2023,04,28,03,22,8.50
2023,04,28,03,23,8.40
2023,04,28,03,24,8.40
2023,04,28,03,25,8.40
2023,04,28,03,26,8.30
2023,04,28,03,27,8.30
2023,04,28,03,28,8.30
2023,04,28,03,29,8.30
2023,04,28,03,30,8.30
2023,04,28,03,31,8.30
2023,04,28,03,32,8.20
2023,04,28,03,33,8.20
2023,04,28,03,34,8.20
2023,04,28,03,35,8.20
2023,04,28,03,36,8.20
2023,04,28,03,37,8.10
2023,04,28,03,38,8.10
2023,04,28,03,39,8.10
2023,04,28,03,40,8.10
2023,04,28,03,41,8.00
2023,04,28,03,42,8.00
2023,04,28,03,43,8.00
2023,04,28,03,44,8.00
2023,04,28,03,45,7.90
2023,04,28,03,46,7.90
2023,04,28,03,47,7.90
2023,04,28,03,48,7.90
2023,04,28,03,49,7.90
2023,04,28,03,50,7.90
2023,04,28,03,51,7.90
2023,04,28,03,52,7.90
2023,04,28,03,53,7.90
2023,04,28,03,54,7.90
2023,04,28,03,55,7.90
2023,04,28,03,56,7.90
2023,04,28,03,57,8.00
2023,04,28,03,58,8.00
2023,04,28,03,59,8.00
2023,04,28,04,00,8.10
2023,04,28,04,01,8.10
2023,04,28,04,02,8.10
2023,04,28,04,03,8.10
2023,04,28,04,04,8.10
2023,04,28,04,05,8.00
2023,04,28,04,06,8.10
2023,04,28,04,07,8.10
2023,04,28,04,08,8.10
2023,04,28,04,09,8.10
2023,04,28,04,10,8.10
2023,04,28,04,11,8.10
2023,04,28,04,12,8.20
2023,04,28,04,13,8.20
2023,04,28,04,14,8.20
2023,04,28,04,15,8.20
2023,04,28,04,16,8.20
2023,04,28,04,17,8.30
2023,04,28,04,18,8.30
2023,04,28,04,19,8.30
2023,04,28,04,20,8.30
2023,04,28,04,21,8.30
2023,04,28,04,22,8.30
2023,04,28,04,23,8.30
2023,04,28,04,24,8.30
2023,04,28,04,25,8.30
2023,04,28,04,26,8.30
2023,04,28,04,27,8.30
2023,04,28,04,28,8.30
2023,04,28,04,29,8.30
2023,04,28,04,30,8.30
2023,04,28,04,31,8.30
2023,04,28,04,32,8.30
2023,04,28,04,33,8.30
2023,04,28,04,34,8.30
2023,04,28,04,35,8.30
2023,04,28,04,36,8.30
2023,04,28,04,37,8.30
2023,04,28,04,38,8.30
2023,04,28,04,39,8.30
2023,04,28,04,40,8.30
2023,04,28,04,41,8.30
2023,04,28,04,42,8.30
2023,04,28,04,43,8.30
2023,04,28,04,44,8.30
2023,04,28,04,45,8.30
2023,04,28,04,46,8.30
2023,04,28,04,47,8.30
2023,04,28,04,48,8.30
2023,04,28,04,49,8.30
2023,04,28,04,50,8.30
2023,04,28,04,51,8.30
2023,04,28,04,52,8.30
2023,04,28,04,53,8.30
2023,04,28,04,54,8.30
2023,04,28,04,55,8.30
2023,04,28,04,56,8.30
2023,04,28,04,57,8.30
2023,04,28,04,58,8.30
2023,04,28,04,59,8.30
2023,04,28,05,00,8.30
2023,04,28,05,01,8.30
2023,04,28,05,02,8.30
2023,04,28,05,03,8.30
2023,04,28,05,04,8.30
2023,04,28,05,05,8.30
2023,04,28,05,06,8.30
2023,04,28,05,07,8.30
2023,04,28,05,08,8.30
2023,04,28,05,09,8.30
2023,04,28,05,10,8.30
2023,04,28,05,11,8.20
2023,04,28,05,12,8.20
2023,04,28,05,13,8.20
2023,04,28,05,14,8.20
2023,04,28,05,15,8.20
2023,04,28,05,16,8.10
2023,04,28,05,17,8.10
2023,04,28,05,18,8.10
2023,04,28,05,19,8.00
2023,04,28,05,20,8.00
2023,04,28,05,21,8.00
2023,04,28,05,22,8.00
2023,04,28,05,23,7.90
2023,04,28,05,24,7.90
2023,04,28,05,25,7.90
2023,04,28,05,26,7.90
2023,04,28,05,27,7.90
2023,04,28,05,28,7.90
2023,04,28,05,29,7.90
2023,04,28,05,30,7.90
2023,04,28,05,31,7.90
2023,04,28,05,32,7.90
2023,04,28,05,33,7.90
2023,04,28,05,34,7.90
2023,04,28,05,35,7.90
2023,04,28,05,36,7.90
2023,04,28,05,37,7.90
2023,04,28,05,38,7.80
2023,04,28,05,39,7.80
2023,04,28,05,40,7.80
2023,04,28,05,41,7.80
2023,04,28,05,42,7.80
2023,04,28,05,43,7.80
2023,04,28,05,44,7.80
2023,04,28,05,45,7.70
2023,04,28,05,46,7.70
2023,04,28,05,47,7.70
2023,04,28,05,48,7.70
2023,04,28,05,49,7.70
2023,04,28,05,50,7.70
2023,04,28,05,51,7.70
2023,04,28,05,52,7.70
2023,04,28,05,53,7.70
2023,04,28,05,54,7.70
2023,04,28,05,55,7.70
2023,04,28,05,56,7.60
2023,04,28,05,57,7.60
2023,04,28,05,58,7.60
2023,04,28,05,59,7.60
2023,04,28,06,00,7.60
2023,04,28,06,01,7.50
2023,04,28,06,02,7.50
2023,04,28,06,03,7.40
2023,04,28,06,04,7.40
2023,04,28,06,05,7.40
2023,04,28,06,06,7.30
2023,04,28,06,07,7.30
2023,04,28,06,08,7.30
2023,04,28,06,09,7.30
2023,04,28,06,10,7.30
2023,04,28,06,11,7.30
2023,04,28,06,12,7.30
2023,04,28,06,13,7.30
2023,04,28,06,14,7.30
2023,04,28,06,15,7.30
2023,04,28,06,16,7.30
2023,04,28,06,17,7.30
2023,04,28,06,18,7.30
2023,04,28,06,19,7.30
2023,04,28,06,20,7.30
2023,04,28,06,21,7.30
2023,04,28,06,22,7.40
2023,04,28,06,23,7.40
2023,04,28,06,24,7.40
2023,04,28,06,25,7.40
2023,04,28,06,26,7.40
2023,04,28,06,27,7.50
2023,04,28,06,28,7.50
2023,04,28,06,29,7.50
2023,04,28,06,30,7.50
2023,04,28,06,31,7.50
2023,04,28,06,32,7.50
2023,04,28,06,33,7.50
2023,04,28,06,34,7.60
2023,04,28,06,35,7.60
2023,04,28,06,36,7.60
2023,04,28,06,37,7.60
2023,04,28,06,38,7.70
2023,04,28,06,39,7.70
2023,04,28,06,40,7.70
2023,04,28,06,41,7.70
2023,04,28,06,42,7.70
2023,04,28,06,43,7.80
2023,04,28,06,44,7.80
2023,04,28,06,45,7.80
2023,04,28,06,46,7.90
2023,04,28,06,47,7.90
2023,04,28,06,48,7.90
2023,04,28,06,49,7.90
2023,04,28,06,50,7.90
2023,04,28,06,51,8.00
2023,04,28,06,52,8.00
2023,04,28,06,53,8.00
2023,04,28,06,54,8.00
2023,04,28,06,55,8.10
2023,04,28,06,56,8.10
2023,04,28,06,57,8.10
2023,04,28,06,58,8.10
2023,04,28,06,59,8.20
2023,04,28,07,00,8.20
2023,04,28,07,01,8.20
2023,04,28,07,02,8.20
2023,04,28,07,03,8.30
2023,04,28,07,04,8.30
2023,04,28,07,05,8.30
2023,04,28,07,06,8.30
2023,04,28,07,07,8.40
2023,04,28,07,08,8.40
2023,04,28,07,09,8.40
2023,04,28,07,10,8.40
2023,04,28,07,11,8.40
2023,04,28,07,12,8.50
2023,04,28,07,13,8.50
2023,04,28,07,14,8.50
2023,04,28,07,15,8.50
2023,04,28,07,16,8.60
2023,04,28,07,17,8.60
2023,04,28,07,18,8.60
2023,04,28,07,19,8.60
2023,04,28,07,20,8.70
2023,04,28,07,21,8.70
2023,04,28,07,22,8.80
2023,04,28,07,23,8.90
2023,04,28,07,24,9.00
2023,04,28,07,25,9.10
2023,04,28,07,26,9.10
2023,04,28,07,27,9.20
2023,04,28,07,28,9.20
2023,04,28,07,29,9.20
2023,04,28,07,30,9.20
2023,04,28,07,31,9.20
2023,04,28,07,32,9.20
2023,04,28,07,33,9.20
2023,04,28,07,34,9.20
2023,04,28,07,35,9.20
2023,04,28,07,36,9.20
2023,04,28,07,37,9.20
2023,04,28,07,38,9.20
2023,04,28,07,39,9.20
2023,04,28,07,40,9.30
2023,04,28,07,41,9.30
2023,04,28,07,42,9.30
2023,04,28,07,43,9.30
2023,04,28,07,44,9.30
2023,04,28,07,45,9.40
2023,04,28,07,46,9.40
2023,04,28,07,47,9.40
2023,04,28,07,48,9.40
2023,04,28,07,49,9.40
2023,04,28,07,50,9.40
2023,04,28,07,51,9.50
2023,04,28,07,52,9.50
2023,04,28,07,53,9.60
2023,04,28,07,54,9.60
2023,04,28,07,55,9.60
2023,04,28,07,56,9.70
2023,04,28,07,57,9.70
2023,04,28,07,58,9.70
2023,04,28,07,59,9.80
2023,04,28,08,00,9.80
2023,04,28,08,01,9.80
2023,04,28,08,02,9.80
2023,04,28,08,03,9.80
2023,04,28,08,04,9.80
2023,04,28,08,05,9.80
2023,04,28,08,06,9.80
2023,04,28,08,07,9.80
2023,04,28,08,08,9.80
2023,04,28,08,09,9.80
2023,04,28,08,10,9.90
2023,04,28,08,11,9.90
2023,04,28,08,12,10.00
2023,04,28,08,13,10.00
2023,04,28,08,14,10.10
2023,04,28,08,15,10.10
2023,04,28,08,16,10.10
2023,04,28,08,17,10.20
2023,04,28,08,18,10.20
2023,04,28,08,19,10.20
2023,04,28,08,20,10.30
2023,04,28,08,21,10.40
2023,04,28,08,22,10.50
2023,04,28,08,23,10.50
2023,04,28,08,24,10.60
2023,04,28,08,25,10.60
2023,04,28,08,26,10.70
2023,04,28,08,27,10.80
2023,04,28,08,28,10.90
2023,04,28,08,29,10.90
2023,04,28,08,30,11.00
2023,04,28,08,31,11.10
2023,04,28,08,32,11.10
2023,04,28,08,33,11.10
2023,04,28,08,34,11.10
2023,04,28,08,35,11.10
2023,04,28,08,36,11.10
2023,04,28,08,37,11.00
2023,04,28,08,38,11.00
2023,04,28,08,39,11.00
2023,04,28,08,40,11.00
2023,04,28,08,41,11.00
2023,04,28,08,42,11.00
2023,04,28,08,43,11.10
2023,04,28,08,44,11.10
2023,04,28,08,45,11.20
2023,04,28,08,46,11.30
2023,04,28,08,47,11.30
2023,04,28,08,48,11.30
2023,04,28,08,49,11.30
2023,04,28,08,50,11.40
2023,04,28,08,51,11.40
2023,04,28,08,52,11.40
2023,04,28,08,53,11.40
2023,04,28,08,54,11.40
2023,04,28,08,55,11.40
2023,04,28,08,56,11.50
2023,04,28,08,57,11.50
2023,04,28,08,58,11.60
2023,04,28,08,59,11.60
2023,04,28,09,00,11.70
2023,04,28,09,01,11.80
2023,04,28,09,02,11.90
2023,04,28,09,03,12.00
2023,04,28,09,04,12.10
2023,04,28,09,05,12.20
2023,04,28,09,06,12.30
2023,04,28,09,07,12.30
2023,04,28,09,08,12.40
2023,04,28,09,09,12.50
2023,04,28,09,10,12.60
2023,04,28,09,11,12.60
2023,04,28,09,12,12.70
2023,04,28,09,13,12.80
2023,04,28,09,14,12.90
2023,04,28,09,15,13.00
2023,04,28,09,16,13.10
2023,04,28,09,17,13.20
2023,04,28,09,18,13.30
2023,04,28,09,19,13.40
2023,04,28,09,20,13.50
2023,04,28,09,21,13.60
2023,04,28,09,22,13.80
2023,04,28,09,23,13.90
2023,04,28,09,24,14.00
2023,04,28,09,25,14.10
2023,04,28,09,26,14.30
2023,04,28,09,27,14.40
2023,04,28,09,28,14.60
2023,04,28,09,29,14.70
2023,04,28,09,30,14.80
2023,04,28,09,31,14.80
2023,04,28,09,32,14.90
2023,04,28,09,33,15.00
2023,04,28,09,34,15.10
2023,04,28,09,35,15.10
2023,04,28,09,36,15.10
2023,04,28,09,37,15.10
2023,04,28,09,38,15.10
2023,04,28,09,39,15.10
2023,04,28,09,40,15.10
2023,04,28,09,41,15.10
2023,04,28,09,42,15.10
2023,04,28,09,43,15.00
2023,04,28,09,44,15.00
2023,04,28,09,45,14.90
2023,04,28,09,46,14.80
2023,04,28,09,47,14.80
2023,04,28,09,48,14.90
2023,04,28,09,49,15.00
2023,04,28,09,50,15.00
2023,04,28,09,51,15.00
2023,04,28,09,52,15.00
2023,04,28,09,53,15.00
2023,04,28,09,54,15.00
2023,04,28,09,55,15.10
2023,04,28,09,56,15.20
2023,04,28,09,57,15.30
2023,04,28,09,58,15.30
2023,04,28,09,59,15.40
2023,04,28,10,00,15.50
2023,04,28,10,01,15.50
2023,04,28,10,02,15.60
2023,04,28,10,03,15.70
2023,04,28,10,04,15.70
2023,04,28,10,05,15.60
2023,04,28,10,06,15.60
2023,04,28,10,07,15.60
2023,04,28,10,08,15.70
2023,04,28,10,09,15.70
2023,04,28,10,10,15.70
2023,04,28,10,11,15.80
2023,04,28,10,12,15.90
2023,04,28,10,13,16.00
2023,04,28,10,14,16.10
2023,04,28,10,15,16.20
2023,04,28,10,16,16.20
2023,04,28,10,17,16.20
2023,04,28,10,18,16.20
2023,04,28,10,19,16.20
2023,04,28,10,20,16.20
2023,04,28,10,21,16.10
2023,04,28,10,22,16.10
2023,04,28,10,23,16.10
2023,04,28,10,24,16.10
2023,04,28,10,25,16.10
2023,04,28,10,26,16.00
2023,04,28,10,27,16.00
2023,04,28,10,28,15.90
2023,04,28,10,29,16.00
2023,04,28,10,30,16.10
2023,04,28,10,31,16.20
2023,04,28,10,32,16.20
2023,04,28,10,33,16.20
2023,04,28,10,34,16.20
2023,04,28,10,35,16.20
2023,04,28,10,36,16.10
2023,04,28,10,37,16.00
2023,04,28,10,38,16.00
2023,04,28,10,39,16.00
2023,04,28,10,40,15.90
2023,04,28,10,41,16.00
2023,04,28,10,42,16.00
2023,04,28,10,43,16.10
2023,04,28,10,44,16.20
2023,04,28,10,45,16.30
2023,04,28,10,46,16.40
2023,04,28,10,47,16.40
2023,04,28,10,48,16.40
2023,04,28,10,49,16.50
2023,04,28,10,50,16.60
2023,04,28,10,51,16.60
2023,04,28,10,52,16.70
2023,04,28,10,53,16.70
2023,04,28,10,54,16.80
2023,04,28,10,55,16.90
2023,04,28,10,56,17.00
2023,04,28,10,57,17.10
2023,04,28,10,58,17.20
2023,04,28,10,59,17.30
2023,04,28,11,00,17.30
2023,04,28,11,01,17.40
2023,04,28,11,02,17.30
2023,04,28,11,03,17.30
2023,04,28,11,04,17.20
2023,04,28,11,05,17.10
2023,04,28,11,06,17.10
2023,04,28,11,07,17.20
2023,04,28,11,08,17.30
2023,04,28,11,09,17.40
2023,04,28,11,10,17.60
2023,04,28,11,11,17.70
2023,04,28,11,12,17.90
2023,04,28,11,13,18.00
2023,04,28,11,14,18.10
2023,04,28,11,15,18.30
2023,04,28,11,16,18.40
2023,04,28,11,17,18.50
2023,04,28,11,18,18.50
2023,04,28,11,19,18.40
2023,04,28,11,20,18.30
2023,04,28,11,21,18.20
2023,04,28,11,22,18.20
2023,04,28,11,23,18.20
2023,04,28,11,24,18.20
2023,04,28,11,25,18.30
2023,04,28,11,26,18.20
2023,04,28,11,27,18.10
2023,04,28,11,28,18.10
2023,04,28,11,29,18.20
2023,04,28,11,30,18.30
2023,04,28,11,31,18.50
2023,04,28,11,32,18.50
2023,04,28,11,33,18.40
2023,04,28,11,34,18.40
2023,04,28,11,35,18.30
2023,04,28,11,36,18.30
2023,04,28,11,37,18.30
2023,04,28,11,38,18.40
2023,04,28,11,39,18.30
2023,04,28,11,40,18.20
2023,04,28,11,41,18.10
2023,04,28,11,42,18.00
2023,04,28,11,43,17.90
2023,04,28,11,44,17.80
2023,04,28,11,45,17.80
2023,04,28,11,46,17.80
2023,04,28,11,47,17.90
2023,04,28,11,48,18.00
2023,04,28,11,49,18.10
2023,04,28,11,50,18.20
2023,04,28,11,51,18.20
2023,04,28,11,52,18.30
2023,04,28,11,53,18.30
2023,04,28,11,54,18.30
2023,04,28,11,55,18.20
2023,04,28,11,56,18.10
2023,04,28,11,57,18.00
2023,04,28,11,58,17.80
2023,04,28,11,59,17.80
2023,04,28,12,00,17.80
2023,04,28,12,01,17.80
2023,04,28,12,02,17.90
2023,04,28,12,03,18.00
2023,04,28,12,04,18.10
2023,04,28,12,05,18.20
2023,04,28,12,06,18.30
2023,04,28,12,07,18.40
2023,04,28,12,08,18.40
2023,04,28,12,09,18.40
2023,04,28,12,10,18.40
2023,04,28,12,11,18.50
2023,04,28,12,12,18.60
2023,04,28,12,13,18.80
2023,04,28,12,14,18.90
2023,04,28,12,15,19.00
2023,04,28,12,16,18.90
2023,04,28,12,17,18.90
2023,04,28,12,18,18.90
2023,04,28,12,19,18.90
2023,04,28,12,20,19.00
2023,04,28,12,21,19.00
2023,04,28,12,22,19.20
2023,04,28,12,23,19.20
2023,04,28,12,24,19.10
2023,04,28,12,25,19.00
2023,04,28,12,26,19.00
2023,04,28,12,27,18.90
2023,04,28,12,28,18.90
2023,04,28,12,29,19.00
2023,04,28,12,30,19.00
2023,04,28,12,31,19.10
2023,04,28,12,32,19.00
2023,04,28,12,33,18.90
2023,04,28,12,34,18.90
2023,04,28,12,35,18.90
2023,04,28,12,36,18.80
2023,04,28,12,37,18.70
2023,04,28,12,38,18.70
2023,04,28,12,39,18.70
2023,04,28,12,40,18.70
2023,04,28,12,41,18.70
2023,04,28,12,42,18.70
2023,04,28,12,43,18.70
2023,04,28,12,44,18.70
2023,04,28,12,45,18.80
2023,04,28,12,46,18.90
2023,04,28,12,47,19.00
2023,04,28,12,48,19.00
2023,04,28,12,49,19.00
2023,04,28,12,50,19.00
2023,04,28,12,51,19.00
2023,04,28,12,52,19.10
2023,04,28,12,53,19.30
2023,04,28,12,54,19.40
2023,04,28,12,55,19.50
2023,04,28,12,56,19.60
2023,04,28,12,57,19.50
2023,04,28,12,58,19.40
2023,04,28,12,59,19.40
2023,04,28,13,00,19.40
2023,04,28,13,01,19.40
2023,04,28,13,02,19.50
2023,04,28,13,03,19.70
2023,04,28,13,04,19.80
2023,04,28,13,05,20.00
2023,04,28,13,06,20.10
2023,04,28,13,07,20.00
2023,04,28,13,08,19.90
2023,04,28,13,09,19.80
2023,04,28,13,10,19.70
2023,04,28,13,11,19.70
2023,04,28,13,12,19.60
2023,04,28,13,13,19.60
2023,04,28,13,14,19.60
2023,04,28,13,15,19.60
2023,04,28,13,16,19.60
2023,04,28,13,17,19.60
2023,04,28,13,18,19.70
2023,04,28,13,19,19.70
2023,04,28,13,20,19.80
2023,04,28,13,21,19.90
2023,04,28,13,22,20.00
2023,04,28,13,23,20.10
2023,04,28,13,24,20.20
2023,04,28,13,25,20.20
2023,04,28,13,26,20.10
2023,04,28,13,27,20.00
2023,04,28,13,28,19.90
2023,04,28,13,29,19.80
2023,04,28,13,30,19.80
2023,04,28,13,31,19.70
2023,04,28,13,32,19.70
2023,04,28,13,33,19.60
2023,04,28,13,34,19.60
2023,04,28,13,35,19.60
2023,04,28,13,36,19.70
2023,04,28,13,37,19.80
2023,04,28,13,38,19.80
2023,04,28,13,39,19.90
2023,04,28,13,40,20.00
2023,04,28,13,41,20.00
2023,04,28,13,42,20.10
2023,04,28,13,43,20.00
2023,04,28,13,44,19.90
2023,04,28,13,45,19.90
2023,04,28,13,46,19.90
2023,04,28,13,47,20.00
2023,04,28,13,48,20.10
2023,04,28,13,49,20.20
2023,04,28,13,50,20.30
2023,04,28,13,51,20.30
2023,04,28,13,52,20.30
2023,04,28,13,53,20.40
2023,04,28,13,54,20.60
2023,04,28,13,55,20.70
2023,04,28,13,56,20.90
2023,04,28,13,57,21.00
2023,04,28,13,58,21.10
2023,04,28,13,59,21.20
2023,04,28,14,00,21.20
2023,04,28,14,01,21.20
2023,04,28,14,02,21.20
2023,04,28,14,03,21.30
2023,04,28,14,04,21.30
2023,04,28,14,05,21.40
2023,04,28,14,06,21.40
2023,04,28,14,07,21.30
2023,04,28,14,08,21.30
2023,04,28,14,09,21.30
2023,04,28,14,10,21.40
2023,04,28,14,11,21.40
2023,04,28,14,12,21.40
2023,04,28,14,13,21.40
2023,04,28,14,14,21.40
2023,04,28,14,15,21.40
2023,04,28,14,16,21.30
2023,04,28,14,17,21.10
2023,04,28,14,18,20.90
2023,04,28,14,19,20.70
2023,04,28,14,20,20.50
2023,04,28,14,21,20.40
2023,04,28,14,22,20.30
2023,04,28,14,23,20.30
2023,04,28,14,24,20.40
2023,04,28,14,25,20.50
2023,04,28,14,26,20.60
2023,04,28,14,27,20.80
2023,04,28,14,28,20.90
2023,04,28,14,29,20.90
2023,04,28,14,30,20.90
2023,04,28,14,31,20.90
2023,04,28,14,32,21.00
2023,04,28,14,33,21.00
2023,04,28,14,34,20.90
2023,04,28,14,35,20.90
2023,04,28,14,36,20.90
2023,04,28,14,37,20.90
2023,04,28,14,38,20.90
2023,04,28,14,39,20.90
2023,04,28,14,40,20.90
2023,04,28,14,41,20.90
2023,04,28,14,42,21.00
2023,04,28,14,43,20.90
2023,04,28,14,44,20.90
2023,04,28,14,45,20.90
2023,04,28,14,46,20.90
2023,04,28,14,47,20.80
2023,04,28,14,48,20.80
2023,04,28,14,49,20.80
2023,04,28,14,50,20.90
2023,04,28,14,51,21.00
2023,04,28,14,52,21.20
2023,04,28,14,53,21.30
2023,04,28,14,54,21.30
2023,04,28,14,55,21.20
2023,04,28,14,56,21.20
2023,04,28,14,57,21.20
2023,04,28,14,58,21.20
2023,04,28,14,59,21.30
2023,04,28,15,00,21.40
2023,04,28,15,01,21.40
2023,04,28,15,02,21.50
2023,04,28,15,03,21.50
2023,04,28,15,04,21.50
2023,04,28,15,05,21.50
2023,04,28,15,06,21.50
2023,04,28,15,07,21.50
2023,04,28,15,08,21.40
2023,04,28,15,09,21.40
2023,04,28,15,10,21.30
2023,04,28,15,11,21.30
2023,04,28,15,12,21.30
2023,04,28,15,13,21.30
2023,04,28,15,14,21.30
2023,04,28,15,15,21.30
2023,04,28,15,16,21.40
2023,04,28,15,17,21.40
2023,04,28,15,18,21.50
2023,04,28,15,19,21.60
2023,04,28,15,20,21.70
2023,04,28,15,21,21.70
2023,04,28,15,22,21.70
2023,04,28,15,23,21.70
2023,04,28,15,24,21.70
2023,04,28,15,25,21.70
2023,04,28,15,26,21.70
2023,04,28,15,27,21.70
2023,04,28,15,28,21.70
2023,04,28,15,29,21.70
2023,04,28,15,30,21.60
2023,04,28,15,31,21.60
2023,04,28,15,32,21.60
2023,04,28,15,33,21.50
2023,04,28,15,34,21.40
2023,04,28,15,35,21.50
2023,04,28,15,36,21.60
2023,04,28,15,37,21.80
2023,04,28,15,38,21.90
2023,04,28,15,39,21.90
2023,04,28,15,40,21.80
2023,04,28,15,41,21.80
2023,04,28,15,42,21.80
2023,04,28,15,43,21.80
2023,04,28,15,44,21.90
2023,04,28,15,45,21.90
2023,04,28,15,46,21.90
2023,04,28,15,47,21.80
2023,04,28,15,48,21.80
2023,04,28,15,49,21.90
2023,04,28,15,50,21.90
2023,04,28,15,51,21.90
2023,04,28,15,52,21.90
2023,04,28,15,53,21.90
2023,04,28,15,54,21.90
2023,04,28,15,55,22.00
2023,04,28,15,56,22.10
2023,04,28,15,57,22.20
2023,04,28,15,58,22.20
2023,04,28,15,59,22.30
2023,04,28,16,00,22.30
2023,04,28,16,01,22.30
2023,04,28,16,02,22.50
2023,04,28,16,03,22.50
2023,04,28,16,04,22.50
2023,04,28,16,05,22.50
2023,04,28,16,06,22.50
2023,04,28,16,07,22.60
2023,04,28,16,08,22.60
2023,04,28,16,09,22.50
2023,04,28,16,10,22.40
2023,04,28,16,11,22.40
2023,04,28,16,12,22.30
2023,04,28,16,13,22.30
2023,04,28,16,14,22.10
2023,04,28,16,15,22.00
2023,04,28,16,16,21.90
2023,04,28,16,17,21.80
2023,04,28,16,18,21.90
2023,04,28,16,19,21.90
2023,04,28,16,20,22.00
2023,04,28,16,21,22.00
2023,04,28,16,22,22.10
2023,04,28,16,23,22.20
2023,04,28,16,24,22.20
2023,04,28,16,25,22.30
2023,04,28,16,26,22.30
2023,04,28,16,27,22.30
2023,04,28,16,28,22.40
2023,04,28,16,29,22.40
2023,04,28,16,30,22.40
2023,04,28,16,31,22.30
2023,04,28,16,32,22.20
2023,04,28,16,33,22.10
2023,04,28,16,34,22.00
2023,04,28,16,35,22.00
2023,04,28,16,36,21.90
2023,04,28,16,37,21.90
2023,04,28,16,38,21.90
2023,04,28,16,39,21.90
2023,04,28,16,40,21.90
2023,04,28,16,41,21.90
2023,04,28,16,42,21.90
2023,04,28,16,43,22.00
2023,04,28,16,44,22.00
2023,04,28,16,45,22.10
2023,04,28,16,46,22.20
2023,04,28,16,47,22.30
2023,04,28,16,48,22.40
2023,04,28,16,49,22.40
2023,04,28,16,50,22.40
2023,04,28,16,51,22.40
2023,04,28,16,52,22.40
2023,04,28,16,53,22.40
2023,04,28,16,54,22.30
2023,04,28,16,55,22.30
2023,04,28,16,56,22.40
2023,04,28,16,57,22.40
2023,04,28,16,58,22.50
2023,04,28,16,59,22.50
2023,04,28,17,00,22.50
2023,04,28,17,01,22.50
2023,04,28,17,02,22.60
2023,04,28,17,03,22.50
2023,04,28,17,04,22.50
2023,04,28,17,05,22.40
2023,04,28,17,06,22.40
2023,04,28,17,07,22.40
2023,04,28,17,08,22.40
2023,04,28,17,09,22.40
2023,04,28,17,10,22.50
2023,04,28,17,11,22.60
2023,04,28,17,12,22.60
2023,04,28,17,13,22.70
2023,04,28,17,14,22.80
2023,04,28,17,15,22.90
2023,04,28,17,16,22.90
2023,04,28,17,17,22.70
2023,04,28,17,18,22.70
2023,04,28,17,19,22.70
2023,04,28,17,20,22.70
2023,04,28,17,21,22.70
2023,04,28,17,22,22.70
2023,04,28,17,23,22.70
2023,04,28,17,24,22.70
2023,04,28,17,25,22.70
2023,04,28,17,26,22.80
2023,04,28,17,27,22.80
2023,04,28,17,28,22.80
2023,04,28,17,29,22.80
2023,04,28,17,30,22.80
2023,04,28,17,31,22.90
2023,04,28,17,32,22.90
2023,04,28,17,33,22.90
2023,04,28,17,34,22.80
2023,04,28,17,35,22.80
2023,04,28,17,36,22.80
2023,04,28,17,37,22.80
2023,04,28,17,38,22.80
2023,04,28,17,39,22.70
2023,04,28,17,40,22.70